Location: Unspecified
(49.2170°N, 0.0000°E)
Time: 10:11:01
(UTC+00:00)

Vanguard 2 Rocket - Pass Details

Date: 26 January 2021
Orbit: 554 x 3326 km, 32.9° (Epoch: 25 February)

Event Time Altitude Azimuth Distance (km) Brightness Sun altitude
Rises 18:06:13 0° 259° (W) 5,566 13.0 -12.9°
Reaches altitude 10° 18:11:31 10° 247° (WSW) 3,997 11.6 -13.7°
Maximum altitude 18:18:10 21° 204° (SSW) 2,520 9.6 -14.8°
Drops below altitude 10° 18:22:53 10° 158° (SSE) 2,701 9.2 -15.5°
Sets 18:25:39 0° 141° (SE) 3,349 9.5 -16.0°
